[[{"header":{"parameterUnit":"m.s-1","parameterCategory":1,"la1":30.2991,"la2":30.254,"lo1":-89.0895,"lo2":-89.0444,"dy":0.0017,"dx":0.0017,"nx":28,"ny":28,"refTime":"2025-04-25T21:00:00:Z","depth":0,"parameterNumber":2,"parameterNumberName":"U-component_of_WINDS"},"data":[0,0,0,0,0,0,0,0,0,0,0,0,0,0,0,0,0,0,0,0,0,0,0,0,0,0,0,0,0,0,0,0,0,0,0,0,0,0,0,0,0,0,0,0,0,0,0,0,0,0,0,0,0,0,0,0,0,0,-0.4058,-0.4058,0,-0.4015,-0.4014,-0.4014,-0.3982,-0.3982,-0.3981,-0.3981,-0.3936,-0.3935,-0.3934,0,0,0,0,0,0,0,0,0,0,0,0,0,-0.4114,-0.4114,-0.4058,-0.4058,-0.4057,-0.4015,-0.4014,-0.4014,-0.3982,-0.3982,-0.3981,-0.3981,-0.3936,-0.3935,-0.3934,0,0,0,0,0,0,0,0,0,0,0,0,0,-0.4082,-0.4113,-0.4058,-0.4036,-0.4034,-0.4015,-0.4014,-0.4013,-0.3982,-0.3982,-0.3981,-0.3981,-0.3936,-0.3935,-0.3934,-0.3933,0,0,-0.3929,-0.3929,0,0,0,0,0,0,0,0,-0.4084,-0.408,-0.404,-0.4038,-0.4035,-0.4003,-0.4017,-0.3986,-0.3982,-0.4002,-0.3981,-0.3981,-0.3958,-0.3955,-0.3948,-0.3931,-0.3929,-0.3929,-0.3928,-0.3928,-0.3927,0,0,0,0,0,0,0,-0.4087,-0.4082,-0.4041,-0.404,-0.4036,-0.4029,-0.4024,-0.4011,-0.3983,-0.4,-0.3998,-0.3993,-0.3957,-0.3949,-0.3947,-0.3928,-0.3929,-0.3928,-0.3927,-0.3926,-0.391,-0.391,0,0,0,0,0,0,-0.4092,-0.4084,-0.4042,-0.404,-0.4059,-0.4028,-0.4022,-0.4014,-0.3983,-0.3978,-0.3993,-0.3992,-0.3952,-0.3948,-0.3945,-0.3943,-0.3928,-0.3926,-0.3925,-0.3909,-0.391,-0.391,0,0,0,0,0,0,-0.4094,-0.4089,-0.4044,-0.4061,-0.4055,-0.4027,-0.4018,-0.4013,-0.4006,-0.3978,-0.3973,-0.3991,-0.3952,-0.3947,-0.3936,-0.3941,-0.3926,-0.3924,-0.3909,-0.3909,-0.391,-0.3939,0,0,0,0,0,0,-0.4095,-0.4089,-0.4089,-0.4061,-0.4054,-0.4036,-0.4018,-0.4013,-0.4003,-0.4001,-0.3974,-0.3969,-0.3951,-0.3939,-0.3935,-0.3939,-0.3923,-0.3908,-0.3909,-0.391,-0.3937,-0.394,-0.3943,0,0,0,0,0,-0.4097,-0.4098,-0.4089,-0.4084,-0.4053,-0.4037,-0.4033,-0.4012,-0.4004,-0.4003,-0.3985,-0.397,-0.3941,-0.3938,-0.3933,-0.3937,-0.3908,-0.3909,-0.391,-0.3936,-0.394,-0.3943,0,0,0,0,0,0,-0.4126,-0.4094,-0.4083,-0.4075,-0.4059,-0.4031,-0.403,-0.4016,-0.4001,-0.4,-0.3974,-0.3968,-0.3961,-0.3948,-0.3945,-0.3935,-0.3923,-0.3923,-0.3944,-0.3947,-0.395,-0.3954,-0.3922,0,0,0,0,0,-0.4131,-0.4121,-0.4094,-0.4089,-0.4082,-0.4057,-0.4049,-0.4035,-0.4017,-0.401,-0.3991,-0.3975,-0.3962,-0.3954,-0.394,-0.3935,-0.393,-0.3935,-0.3938,-0.3941,-0.3941,-0.3939,-0.3942,-0.3913,-0.3913,-0.3913,0,0,-0.4142,-0.4124,-0.4118,-0.4094,-0.408,-0.4071,-0.4052,-0.4042,-0.4034,-0.4008,-0.3998,-0.3984,-0.3963,-0.3956,-0.3952,-0.3945,-0.3948,-0.3942,-0.3944,-0.3943,-0.394,-0.3943,-0.3945,-0.3914,-0.3914,-0.3914,0,0,-0.4157,-0.4142,-0.4137,-0.4123,-0.4102,-0.4086,-0.4085,-0.406,-0.405,-0.4039,-0.402,-0.4011,-0.3989,-0.3975,-0.3966,-0.3978,-0.3963,-0.3974,-0.3989,-0.3987,-0.3989,-0.3991,-0.3996,-0.3998,-0.3974,-0.3974,-0.3974,0,-0.4173,-0.4158,-0.4136,-0.4128,-0.4118,-0.4095,-0.409,-0.4078,-0.4054,-0.4048,-0.404,-0.4014,-0.3998,-0.3988,-0.3991,-0.3984,-0.3982,-0.3977,-0.399,-0.3992,-0.3993,-0.3998,-0.4,-0.3976,-0.3976,-0.3976,-0.3975,0,-0.418,-0.4169,-0.4168,-0.4146,-0.4136,-0.413,-0.4107,-0.41,-0.4087,-0.4072,-0.4062,-0.4042,-0.4025,-0.4022,-0.4008,-0.401,-0.4007,-0.3995,-0.3982,-0.3998,-0.4002,-0.4004,-0.3978,-0.3978,-0.3977,-0.3977,0,0,-0.4211,-0.4178,-0.4178,-0.4168,-0.4144,-0.4135,-0.4128,-0.4112,-0.4107,-0.4091,-0.4085,-0.4068,-0.4058,-0.4047,-0.4032,-0.403,-0.4042,-0.4019,-0.4018,-0.4025,-0.4045,-0.4054,-0.4057,-0.4033,-0.4033,-0.4033,-0.4047,0,-0.4223,-0.4209,-0.419,-0.4183,-0.4174,-0.4152,-0.4146,-0.4131,-0.4117,-0.4107,-0.4092,-0.4081,-0.4067,-0.4061,-0.4058,-0.4041,-0.4046,-0.404,-0.4027,-0.4027,-0.4034,-0.4059,-0.4068,-0.4082,-0.4048,-0.4049,-0.4049,0,-0.4235,-0.4221,-0.4213,-0.4191,-0.4187,-0.4182,-0.4166,-0.4157,-0.414,-0.413,-0.4119,-0.4103,-0.4095,-0.4083,-0.4072,-0.4069,-0.4062,-0.4054,-0.4054,-0.4052,-0.4039,-0.4059,-0.4086,-0.4089,-0.4051,-0.4051,-0.4051,0,-0.426,-0.4239,-0.4232,-0.4225,-0.4198,-0.4196,-0.4184,-0.4167,-0.4159,-0.4145,-0.414,-0.4125,-0.4118,-0.4107,-0.4088,-0.4081,-0.408,-0.4066,-0.4072,-0.4073,-0.4073,-0.4073,-0.4101,-0.4068,-0.4068,-0.4068,-0.4068,0,-0.4275,-0.4272,-0.4243,-0.4239,-0.4235,-0.4213,-0.421,-0.4196,-0.4181,-0.4174,-0.4154,-0.4149,-0.4123,-0.4115,-0.41,-0.4094,-0.409,-0.4082,-0.4079,-0.4085,-0.4086,-0.408,-0.4079,-0.4068,-0.4068,-0.4068,-0.4068,0,-0.4302,-0.4283,-0.4275,-0.4251,-0.4245,-0.4243,-0.4223,-0.4218,-0.4203,-0.4195,-0.4192,-0.4169,-0.4158,-0.4138,-0.4121,-0.4111,-0.4109,-0.4101,-0.4115,-0.4113,-0.412,-0.412,-0.4146,-0.4148,-0.4113,-0.4114,-0.4114,0,-0.4314,-0.4311,-0.4287,-0.4282,-0.4272,-0.4262,-0.4255,-0.4233,-0.4226,-0.4207,-0.4205,-0.4193,-0.4182,-0.4165,-0.4147,-0.4134,-0.4127,-0.4137,-0.4125,-0.4132,-0.4129,-0.413,-0.413,-0.414,-0.414,-0.4141,-0.4141,0,-0.4337,-0.4328,-0.4318,-0.4305,-0.4296,-0.4284,-0.4272,-0.4268,-0.4244,-0.4237,-0.4226,-0.4218,-0.4201,-0.4189,-0.4174,-0.4163,-0.4149,-0.4145,-0.4146,-0.4153,-0.4161,-0.4158,-0.4123,-0.4145,-0.4144,-0.4144,-0.4144,-0.4144,-0.4357,-0.4354,-0.4338,-0.4327,-0.4316,-0.4305,-0.43,-0.4285,-0.4276,-0.4261,-0.4249,-0.4239,-0.4223,-0.4201,-0.4191,-0.4183,-0.4176,-0.4177,-0.4178,-0.4179,-0.4182,-0.4162,-0.418,-0.418,-0.418,-0.418,-0.418,0,-0.438,-0.4369,-0.436,-0.4343,-0.4335,-0.4323,-0.4308,-0.4303,-0.4294,-0.4281,-0.4271,-0.4259,-0.4248,-0.4229,-0.4217,-0.4214,-0.4208,-0.4212,-0.4212,-0.421,-0.4188,-0.4189,-0.4218,-0.4218,-0.4218,-0.4218,-0.4218,-0.4218,-0.4391,-0.4386,-0.4375,-0.4364,-0.4353,-0.4343,-0.4337,-0.4327,-0.4316,-0.4304,-0.4295,-0.4283,-0.4268,-0.4254,-0.4244,-0.4239,-0.4236,-0.4242,-0.4235,-0.4215,-0.4212,-0.4208,-0.4209,-0.4242,-0.4242,-0.4258,-0.4258,-0.4259]},{"header":{"parameterUnit":"m.s-1","parameterCategory":1,"la1":30.2991,"la2":30.254,"lo1":-89.0895,"lo2":-89.0444,"dy":0.0017,"dx":0.0017,"nx":28,"ny":28,"refTime":"2025-04-25T21:00:00:Z","depth":0,"parameterNumber":3,"parameterNumberName":"V-component_of_WINDS"},"data":[0,0,0,0,0,0,0,0,0,0,0,0,0,0,0,0,0,0,0,0,0,0,0,0,0,0,0,0,0,0,0,0,0,0,0,0,0,0,0,0,0,0,0,0,0,0,0,0,0,0,0,0,0,0,0,0,0,0,2.4804,2.4804,0,2.4855,2.4856,2.4856,2.4813,2.4812,2.481,2.4808,2.4857,2.486,2.4863,0,0,0,0,0,0,0,0,0,0,0,0,0,2.4664,2.4667,2.4804,2.4804,2.4805,2.4855,2.4856,2.4856,2.4814,2.4812,2.4809,2.4807,2.4856,2.4859,2.4863,0,0,0,0,0,0,0,0,0,0,0,0,0,2.4721,2.4668,2.4804,2.479,2.4789,2.4855,2.4856,2.4856,2.4814,2.4811,2.4809,2.4806,2.4855,2.4859,2.4863,2.4944,0,0,2.4877,2.4879,0,0,0,0,0,0,0,0,2.4718,2.4726,2.4791,2.4791,2.479,2.4825,2.4824,2.4886,2.4815,2.4805,2.4808,2.4805,2.4848,2.4853,2.4868,2.4946,2.4948,2.4877,2.488,2.4882,2.4883,0,0,0,0,0,0,0,2.4714,2.4724,2.4824,2.4792,2.4792,2.478,2.4785,2.4836,2.484,2.4805,2.4802,2.4809,2.4847,2.4864,2.4869,2.4949,2.4877,2.4881,2.4884,2.4885,2.5095,2.5098,0,0,0,0,0,0,2.4712,2.4721,2.4822,2.4825,2.4747,2.4784,2.479,2.4817,2.484,2.4841,2.4811,2.4807,2.4858,2.4864,2.4871,2.4967,2.4882,2.4886,2.4888,2.5092,2.5095,2.5099,0,0,0,0,0,0,2.4709,2.4722,2.482,2.4772,2.4784,2.479,2.482,2.4819,2.4836,2.4845,2.4845,2.4828,2.4856,2.4864,2.4926,2.4968,2.4888,2.4892,2.5088,2.5093,2.5097,2.5159,0,0,0,0,0,0,2.4705,2.4721,2.4753,2.4773,2.4787,2.4876,2.4822,2.4822,2.4844,2.4839,2.486,2.4861,2.4855,2.492,2.4931,2.4972,2.4895,2.5085,2.509,2.5096,2.5153,2.5165,2.5175,0,0,0,0,0,2.4701,2.4767,2.4755,2.4767,2.4827,2.4879,2.4886,2.4879,2.4848,2.4879,2.4884,2.486,2.4961,2.4926,2.4938,2.4982,2.5082,2.5089,2.5095,2.5148,2.5163,2.5175,0,0,0,0,0,0,2.475,2.477,2.4756,2.4832,2.4854,2.4872,2.4911,2.4894,2.4925,2.4918,2.4906,2.4911,2.4976,2.4985,2.4946,2.5061,2.5016,2.5026,2.5053,2.5067,2.5077,2.5074,2.4899,0,0,0,0,0,2.477,2.4812,2.4826,2.4892,2.4904,2.4906,2.4928,2.492,2.4942,2.4951,2.4961,2.4982,2.5019,2.5043,2.5077,2.5154,2.5158,2.519,2.52,2.5209,2.5218,2.5259,2.5273,2.512,2.512,2.512,0,0,2.4811,2.4827,2.4854,2.4902,2.4918,2.4961,2.4914,2.4961,2.4992,2.4958,2.5017,2.5025,2.5048,2.5118,2.5149,2.5127,2.526,2.5218,2.5225,2.5228,2.5267,2.5281,2.5294,2.5125,2.5124,2.5123,0,0,2.4908,2.4925,2.4981,2.4998,2.5024,2.5025,2.5039,2.5059,2.5063,2.5123,2.5098,2.5134,2.5197,2.5214,2.5231,2.5334,2.5313,2.5345,2.5402,2.5442,2.5454,2.5465,2.5502,2.5515,2.5353,2.5353,2.5354,0,2.4956,2.502,2.5011,2.5061,2.5082,2.5054,2.511,2.5127,2.5162,2.5177,2.5152,2.5231,2.5244,2.5317,2.5343,2.5357,2.5371,2.5343,2.5454,2.5464,2.5474,2.5509,2.5522,2.5357,2.5357,2.5356,2.5356,0,2.5077,2.5122,2.5164,2.5201,2.5226,2.5279,2.5276,2.5303,2.5293,2.5296,2.5356,2.5371,2.5408,2.5424,2.5414,2.5496,2.5482,2.5456,2.5411,2.5492,2.5525,2.5538,2.5363,2.5361,2.536,2.5359,0,0,2.5208,2.5238,2.5254,2.527,2.5296,2.533,2.538,2.5417,2.544,2.5465,2.5506,2.556,2.5536,2.5555,2.5546,2.5582,2.5662,2.5551,2.5551,2.5571,2.5753,2.5774,2.5789,2.5648,2.5651,2.5653,2.5752,0,2.5306,2.5396,2.5389,2.5473,2.5513,2.5487,2.5531,2.5551,2.5554,2.5588,2.5592,2.563,2.5595,2.5607,2.5641,2.5645,2.5699,2.5638,2.5686,2.5688,2.5682,2.5806,2.5828,2.5921,2.5764,2.5766,2.5768,0,2.5433,2.5464,2.5552,2.5572,2.5589,2.5629,2.5661,2.5695,2.5716,2.5716,2.5738,2.5723,2.5772,2.5726,2.5793,2.5752,2.5771,2.5776,2.578,2.5784,2.5733,2.5814,2.595,2.5964,2.5788,2.5786,2.5785,0,2.552,2.5583,2.5644,2.5658,2.5683,2.5711,2.5722,2.5741,2.5764,2.5792,2.5806,2.5839,2.5857,2.5883,2.5877,2.5844,2.5945,2.5899,2.5946,2.5947,2.5969,2.5968,2.611,2.5981,2.5981,2.598,2.598,0,2.563,2.5686,2.5683,2.5721,2.5781,2.5772,2.5832,2.5839,2.5856,2.5894,2.5872,2.5907,2.5897,2.5932,2.5927,2.5983,2.5991,2.5992,2.599,2.5995,2.5995,2.6007,2.6001,2.5984,2.5983,2.5982,2.5982,0,2.5738,2.5738,2.5803,2.5821,2.5827,2.5871,2.5886,2.592,2.5922,2.597,2.598,2.5983,2.6022,2.6019,2.6062,2.6059,2.6129,2.6119,2.6123,2.6121,2.6168,2.6164,2.6324,2.6345,2.6201,2.6203,2.6204,0,2.5809,2.5851,2.5874,2.5898,2.5912,2.5951,2.5974,2.5966,2.599,2.6018,2.6049,2.6087,2.6117,2.6181,2.6186,2.6219,2.621,2.6264,2.6215,2.6218,2.6211,2.6209,2.6213,2.6274,2.6275,2.6277,2.6278,0,2.5935,2.5934,2.5968,2.6004,2.6032,2.6059,2.6083,2.6104,2.6098,2.6126,2.6167,2.619,2.6236,2.6273,2.6305,2.6314,2.6295,2.6293,2.6306,2.6311,2.6311,2.6312,2.6149,2.6289,2.6288,2.6287,2.6287,2.6286,2.6027,2.6063,2.6085,2.6124,2.6142,2.6165,2.6199,2.6205,2.6239,2.6277,2.6269,2.6315,2.6334,2.6375,2.6388,2.6423,2.6403,2.6422,2.6426,2.6431,2.6437,2.6305,2.6428,2.6428,2.6427,2.6427,2.6427,0,2.6153,2.6165,2.6202,2.6237,2.6268,2.6248,2.6273,2.63,2.6341,2.6361,2.6391,2.6438,2.6474,2.6482,2.6516,2.6542,2.6534,2.6552,2.655,2.6552,2.6452,2.6438,2.6558,2.6558,2.6558,2.6557,2.6557,2.6557,2.6222,2.6282,2.6283,2.635,2.6362,2.6408,2.6424,2.6445,2.6461,2.6515,2.6545,2.655,2.6565,2.66,2.6632,2.6633,2.6647,2.6668,2.6666,2.6572,2.6559,2.6547,2.6534,2.6671,2.6671,2.6763,2.6764,2.6765]}]]